This is the latest recevied weather packets stored in our database for station/object LU8FCJ-5. If no packets are shown the sender has not sent any weather packets the latest 10 day(s).
| Time | Temp. | Humidity | Pressure | Rain* | Wind** | Luminosity | Snow |
|---|---|---|---|---|---|---|---|
| 1778263214 | 13.89° C | 31% | 1007.6 hPa | 0 mm | - | - | - |
| 1778262905 | 13.89° C | 33% | 1007.7 hPa | 0 mm | - | - | - |
| 1778262594 | 13.89° C | 32% | 1007.6 hPa | 0 mm | - | - | - |
| 1778262283 | 13.89° C | 33% | 1007.7 hPa | 0 mm | - | - | - |
| 1778261974 | 13.89° C | 34% | 1007.8 hPa | 0 mm | - | - | - |
| 1778261664 | 13.89° C | 33% | 1007.6 hPa | 0 mm | - | - | - |
| 1778261353 | 13.89° C | 34% | 1007.8 hPa | 0 mm | - | - | - |
| 1778261040 | 13.89° C | 34% | 1007.7 hPa | 0 mm | - | - | - |
| 1778260730 | 13.89° C | 34% | 1007.7 hPa | 0 mm | - | - | - |
| 1778260420 | 13.33° C | 35% | 1007.8 hPa | 0 mm | - | - | - |
| 1778260109 | 13.33° C | 35% | 1008.4 hPa | 0 mm | - | - | - |
| 1778259799 | 13.33° C | 38% | 1008.2 hPa | 0 mm | - | - | - |
| 1778259489 | 13.33° C | 38% | 1008.4 hPa | 0 mm | - | - | - |
| 1778259179 | 13.33° C | 38% | 1008.3 hPa | 0 mm | - | - | - |
| 1778258869 | 13.89° C | 36% | 1008.4 hPa | 0 mm | - | - | - |
| 1778258559 | 13.33° C | 37% | 1008.3 hPa | 0 mm | - | - | - |
| 1778258249 | 13.33° C | 37% | 1008.3 hPa | 0 mm | - | - | - |
| 1778257938 | 13.89° C | 37% | 1008.2 hPa | 0 mm | - | - | - |
| 1778257629 | 13.89° C | 38% | 1008.3 hPa | 0 mm | - | - | - |
| 1778257319 | 13.33° C | 37% | 1008.3 hPa | 0 mm | - | - | - |
| 1778257008 | 14.44° C | 36% | 1008.7 hPa | 0 mm | - | - | - |
| 1778256698 | 13.33° C | 38% | 1008.9 hPa | 0 mm | - | - | - |
| 1778256388 | 13.33° C | 37% | 1008.6 hPa | 0 mm | - | - | - |
| 1778256079 | 12.78° C | 39% | 1008.5 hPa | 0 mm | - | - | - |
| 1778255768 | 13.33° C | 40% | 1008.8 hPa | 0 mm | - | - | - |
* Rain latest hour (hover to see other rain measurements)
** Current wind speed in m/s (hover to see current wind gust speed)